Simultaneous Nadir Overpasses (SNOs) Predictions

Prediction of SNOs between GOES-16 and LANDSAT-8 Satellite Orbit:

Table of predicted SNOs for the next 14.0 days since TLE Epoch: 11/20/2020
Index Date Time (GOES-16) GOES-16 Lat,Lon LANDSAT-8 Lat,Lon Distance(km) Time Diff (sec)
1 11/22/2020 03:09:57 0.03, -75.15 0.13, -74.67 54.73 80
2 11/24/2020 02:57:46 0.02, -75.16 0.75, -71.71 391.60 80
3 11/24/2020 15:19:01 -0.02, -75.18 0.32, -76.87 192.15 80
4 11/26/2020 15:09:30 -0.02, -75.20 -0.30, -73.92 145.62 80
5 11/27/2020 03:30:54 0.02, -75.18 -0.83, -79.10 446.37 80
6 11/28/2020 14:57:20 -0.02, -75.21 -0.92, -70.96 483.83 80
7 11/29/2020 03:18:43 0.02, -75.20 -0.21, -76.15 108.11 80
8 12/01/2020 03:03:52 0.01, -75.22 0.42, -73.19 230.53 80
9 12/01/2020 15:25:08 -0.01, -75.25 0.65, -78.35 353.08 80
10 12/03/2020 15:12:57 0.00, -75.27 0.02, -75.40 14.12 80
